Date String (YYYY-MM-DD hh:mm:ss) UTC,Instrument flags,absolute air pressure of the measurement (hPa),sample flow rate (lpm),inlet stack bypass flow (lpm),air temperature of the measurement (°C),ambient temperature measured by the external sensor (°C),aerosol sample conditioner tube jacket temperature (°C),OPC LED temperature (°C),internal box temperature (°C),relative humidity of the measurement (%),span deviation,mass concentration of particles derived from Lorenz-Mie calculation of OPC scattering (μg/m³),mass concentration of particles derived from Lorenz-Mie calculation of OPC scattering (μg/m³),mass concentration of particles derived from Lorenz-Mie calculation of OPC scattering (μg/m³)
DateTimeUTC,F1_M11,P_M11,Q1_M11,Q2_M11,T1_M11,T2_M11,T3_M11,T4_M11,T5_M11,U1_M11,ZSPAN_M11,X0_M11,X2_M11,X1_M11
2023-06-14 11:00:00,SystemResetWarning,0827.2,5.01,000.00,029.2,027.4,000.0,037.8,030.6,18.8,0000.0,0003.08,0001.83,0001.42
2023-06-14 11:01:00,SystemResetWarning,0827.2,5.01,000.00,029.2,027.4,000.0,037.8,030.6,18.7,0000.0,0003.12,0001.84,0001.41
2023-06-14 11:02:00,SystemResetWarning,0827.2,5.01,000.00,029.2,027.4,000.0,037.8,030.6,18.6,0000.0,0003.10,0001.84,0001.41
2023-06-14 11:03:00,SystemResetWarning,0827.2,4.99,000.00,029.2,027.4,000.0,037.8,030.6,18.6,0000.0,0003.15,0001.84,0001.41
2023-06-14 11:04:00,SystemResetWarning,0827.2,4.99,000.00,029.1,027.4,000.0,037.8,030.6,19.0,0000.0,0003.50,0001.83,0001.41
2023-06-14 11:05:00,SystemResetWarning,0827.2,4.99,000.00,029.1,027.4,000.0,037.8,030.6,19.8,0000.0,0003.66,0001.80,0001.40
2023-06-14 11:06:00,SystemResetWarning,0827.2,5.00,000.00,029.1,027.4,000.0,037.8,030.6,19.7,0000.0,0005.17,0001.81,0001.40
2023-06-14 11:07:00,SystemResetWarning,0827.2,5.01,000.00,029.1,027.4,000.0,037.8,030.6,19.1,0000.0,0005.23,0001.85,0001.41
2023-06-14 11:08:00,SystemResetWarning,0827.2,5.01,000.00,029.1,027.4,000.0,037.7,030.5,19.0,0000.0,0005.15,0001.82,0001.41
2023-06-14 11:09:00,SystemResetWarning,0827.2,5.00,000.00,029.1,027.3,000.0,037.7,030.5,18.9,0000.0,0004.92,0001.76,0001.42
2023-06-14 11:10:00,SystemResetWarning,0827.2,4.99,000.00,029.1,027.3,000.0,037.7,030.6,18.8,0000.0,0004.95,0001.77,0001.42
2023-06-14 11:11:00,SystemResetWarning,0827.2,4.99,000.00,029.1,027.3,000.0,037.7,030.6,18.8,0000.0,0004.89,0001.78,0001.43
2023-06-14 11:12:00,SystemResetWarning,0827.2,5.01,000.00,029.1,027.3,000.0,037.7,030.5,18.8,0000.0,0005.04,0001.86,0001.43
2023-06-14 11:13:00,SystemResetWarning,0827.2,5.01,000.00,029.1,027.3,000.0,037.7,030.6,19.1,0000.0,0005.19,0001.88,0001.44
2023-06-14 11:14:00,SystemResetWarning,0827.2,5.01,000.00,029.1,027.3,000.0,037.7,030.5,19.1,0000.0,0005.22,0001.87,0001.43
2023-06-14 11:15:00,SystemResetWarning,0827.2,5.00,000.00,029.1,027.3,000.0,037.7,030.5,19.2,0000.0,0004.88,0001.88,0001.44
2023-06-14 11:16:00,SystemResetWarning,0827.2,4.99,000.00,029.1,027.3,000.0,037.7,030.5,19.2,0000.0,0004.59,0001.89,0001.46
2023-06-14 11:17:00,SystemResetWarning,0827.2,5.00,000.00,029.1,027.3,000.0,037.7,030.5,19.0,0000.0,0003.17,0001.89,0001.47
2023-06-14 11:18:00,SystemResetWarning,0827.2,5.00,000.00,029.1,027.3,000.0,037.7,030.5,18.9,0000.0,0003.07,0001.90,0001.47
2023-06-14 11:19:00,SystemResetWarning,0827.2,5.00,000.00,029.1,027.3,000.0,037.7,030.5,18.7,0000.0,0003.08,0001.90,0001.48
2023-06-14 11:20:00,SystemResetWarning,0827.2,5.00,000.00,029.0,027.3,000.0,037.7,030.5,18.7,0000.0,0004.44,0001.91,0001.49
2023-06-14 11:21:00,SystemResetWarning,0827.2,5.00,000.00,029.0,027.3,000.0,037.7,030.5,18.7,0000.0,0004.84,0001.91,0001.50
2023-06-14 11:22:00,SystemResetWarning,0827.2,5.00,000.00,029.0,027.3,000.0,037.7,030.5,18.7,0000.0,0004.94,0001.96,0001.50
2023-06-14 11:23:00,SystemResetWarning,0827.3,5.01,000.00,029.0,027.2,000.0,037.6,030.5,18.8,0000.0,0004.87,0001.92,0001.50
2023-06-14 11:24:00,SystemResetWarning,0827.3,5.01,000.00,029.0,027.2,000.0,037.6,030.5,19.8,0000.0,0004.73,0001.88,0001.50
2023-06-14 11:25:00,SystemResetWarning,0827.3,5.00,000.00,029.0,027.2,000.0,037.6,030.5,19.7,0000.0,0004.63,0001.88,0001.50
2023-06-14 11:26:00,SystemResetWarning,0827.3,5.00,000.00,029.0,027.2,000.0,037.6,030.4,19.3,0000.0,0004.65,0001.88,0001.50
2023-06-14 11:27:00,SystemResetWarning,0827.3,5.00,000.00,029.0,027.2,000.0,037.6,030.5,19.1,0000.0,0004.89,0001.94,0001.50
2023-06-14 11:28:00,SystemResetWarning,0827.4,5.00,000.00,029.0,027.2,000.0,037.6,030.4,19.0,0000.0,0005.04,0001.96,0001.50
2023-06-14 11:29:00,SystemResetWarning,0827.4,5.00,000.00,029.0,027.2,000.0,037.6,030.5,19.4,0000.0,0004.92,0001.96,0001.51
2023-06-14 11:30:00,SystemResetWarning,0827.4,5.00,000.00,029.0,027.2,000.0,037.6,030.5,20.4,0000.0,0004.86,0001.94,0001.49
2023-06-14 11:31:00,SystemResetWarning,0827.4,5.00,000.00,029.0,027.2,000.0,037.6,030.5,20.7,0000.0,0003.91,0001.98,0001.49
2023-06-14 11:32:00,SystemResetWarning,0827.3,5.00,000.00,029.0,027.2,000.0,037.6,030.4,20.4,0000.0,0003.47,0001.99,0001.49
2023-06-14 11:33:00,SystemResetWarning,0827.4,5.00,000.00,029.0,027.2,000.0,037.6,030.4,20.2,0000.0,0003.59,0001.93,0001.47
2023-06-14 11:34:00,SystemResetWarning,0827.4,4.99,000.00,029.0,027.2,000.0,037.6,030.4,20.0,0000.0,0003.56,0001.91,0001.45
2023-06-14 11:35:00,SystemResetWarning,0827.3,5.00,000.00,029.0,027.2,000.0,037.6,030.4,19.8,0000.0,0003.53,0001.89,0001.44
2023-06-14 11:36:00,SystemResetWarning,0827.3,5.01,000.00,029.0,027.2,000.0,037.6,030.4,19.6,0000.0,0003.51,0001.87,0001.43
2023-06-14 11:37:00,SystemResetWarning,0827.2,5.00,000.00,028.9,027.2,000.0,037.6,030.4,19.5,0000.0,0003.48,0001.87,0001.42
2023-06-14 11:38:00,SystemResetWarning,0827.2,5.00,000.00,028.9,027.2,000.0,037.6,030.4,19.5,0000.0,0003.13,0001.79,0001.40
2023-06-14 11:39:00,SystemResetWarning,0827.2,5.00,000.00,028.9,027.2,000.0,037.6,030.4,19.4,0000.0,0002.95,0001.76,0001.39
2023-06-14 11:40:00,SystemResetWarning,0827.2,5.00,000.00,028.9,027.1,000.0,037.6,030.3,19.4,0000.0,0003.06,0001.80,0001.38
2023-06-14 11:41:00,SystemResetWarning,0827.2,5.00,000.00,028.9,027.1,000.0,037.5,030.3,19.4,0000.0,0003.18,0001.85,0001.39
2023-06-14 11:42:00,SystemResetWarning,0827.2,5.00,000.00,028.9,027.1,000.0,037.5,030.4,19.4,0000.0,0003.12,0001.82,0001.39
2023-06-14 11:43:00,SystemResetWarning,0827.2,5.00,000.00,028.9,027.1,000.0,037.5,030.3,19.4,0000.0,0002.87,0001.79,0001.38
2023-06-14 11:44:00,SystemResetWarning,0827.2,5.00,000.00,028.9,027.1,000.0,037.5,030.3,19.7,0000.0,0002.65,0001.79,0001.38
2023-06-14 11:45:00,SystemResetWarning,0827.2,5.00,000.00,028.9,027.1,000.0,037.5,030.4,19.6,0000.0,0002.72,0001.83,0001.39
2023-06-14 11:46:00,SystemResetWarning,0827.2,5.00,000.00,028.9,027.1,000.0,037.5,030.3,19.7,0000.0,0002.67,0001.82,0001.39
2023-06-14 11:47:00,SystemResetWarning,0827.2,5.00,000.00,028.9,027.1,000.0,037.5,030.3,19.6,0000.0,0002.74,0001.82,0001.41
2023-06-14 11:48:00,SystemResetWarning,0827.2,5.00,000.00,028.9,027.1,000.0,037.5,030.3,19.5,0000.0,0002.75,0001.80,0001.40
2023-06-14 11:49:00,SystemResetWarning,0827.2,5.00,000.00,028.9,027.1,000.0,037.5,030.4,19.6,0000.0,0003.18,0001.80,0001.40
2023-06-14 11:50:00,SystemResetWarning,0827.2,5.00,000.00,028.9,027.1,000.0,037.5,030.3,20.1,0000.0,0003.41,0001.85,0001.40
2023-06-14 11:51:00,SystemResetWarning,0827.2,5.00,000.00,028.9,027.1,000.0,037.5,030.3,20.6,0000.0,0004.39,0001.84,0001.39
2023-06-14 11:52:00,SystemResetWarning,0827.2,5.00,000.00,028.9,027.1,000.0,037.5,030.3,20.8,0000.0,0004.42,0001.77,0001.38
2023-06-14 11:53:00,SystemResetWarning,0827.3,5.00,000.00,028.9,027.1,000.0,037.5,030.3,20.3,0000.0,0004.45,0001.76,0001.37
2023-06-14 11:54:00,SystemResetWarning,0827.3,5.00,000.00,028.8,027.1,000.0,037.5,030.3,19.7,0000.0,0004.48,0001.76,0001.37
2023-06-14 11:55:00,SystemResetWarning,0827.3,5.00,000.00,028.8,027.1,000.0,037.5,030.3,19.6,0000.0,0005.10,0001.82,0001.40
2023-06-14 11:56:00,SystemResetWarning,0827.3,5.00,000.00,028.8,027.1,000.0,037.5,030.3,19.9,0000.0,0005.12,0001.81,0001.40
2023-06-14 11:57:00,SystemResetWarning,0827.3,5.00,000.00,028.8,027.1,000.0,037.5,030.3,19.4,0000.0,0005.22,0001.84,0001.39
2023-06-14 11:58:00,SystemResetWarning,0827.3,5.00,000.00,028.8,027.1,000.0,037.4,030.3,19.3,0000.0,0005.18,0001.85,0001.39
2023-06-14 11:59:00,SystemResetWarning,0827.4,5.00,000.00,028.8,027.1,000.0,037.4,030.3,19.3,0000.0,0005.18,0001.89,0001.39
